ANZ172 NZAA-NFTF

Flight info

Callsign ANZ172
Flight time 2h 45m
Altitude 39000
Route ELPAK B575 KETUP KETUP1A
Aircraft A20N/M-SDE2E3FGHIRWXY/LB1

Departure

Time 2026-04-21 11:14
Airport Auckland International Airport (NZAA)

Arrival

Time 2026-04-21 14:00
Airport Fua'amotu International Airport (NFTF)
Time Latitude Longitude Altitude Speed Heading
2026-04-21 10:37 -37.00826 174.78275 28 ft 0 kts 264°
2026-04-21 10:56 -37.00825 174.78276 0 ft 1 kts 264°
2026-04-21 10:57 -37.00824 174.78296 28 ft 2 kts 264°
2026-04-21 10:57 -37.00821 174.78326 28 ft 3 kts 264°
2026-04-21 10:57 -37.00820 174.78356 29 ft 3 kts 263°
2026-04-21 10:57 -37.00811 174.78377 29 ft 2 kts 197°
2026-04-21 10:58 -37.00803 174.78378 29 ft 0 kts 182°
2026-04-21 11:05 -37.00805 174.78378 29 ft 1 kts 182°
2026-04-21 11:05 -37.00824 174.78376 29 ft 5 kts 186°
2026-04-21 11:05 -37.00847 174.78376 29 ft 3 kts 167°
2026-04-21 11:05 -37.00875 174.78395 29 ft 6 kts 142°
2026-04-21 11:06 -37.00910 174.78438 29 ft 8 kts 133°
2026-04-21 11:06 -37.00932 174.78515 29 ft 10 kts 99°
2026-04-21 11:06 -37.00921 174.78608 30 ft 12 kts 77°
2026-04-21 11:06 -37.00898 174.78714 29 ft 14 kts 73°
2026-04-21 11:07 -37.00861 174.78845 27 ft 18 kts 70°
2026-04-21 11:07 -37.00815 174.78999 27 ft 20 kts 71°
2026-04-21 11:07 -37.00771 174.79176 24 ft 23 kts 70°
2026-04-21 11:07 -37.00719 174.79363 27 ft 22 kts 72°
2026-04-21 11:08 -37.00667 174.79547 28 ft 23 kts 71°
2026-04-21 11:08 -37.00616 174.79733 30 ft 23 kts 71°
2026-04-21 11:08 -37.00562 174.79924 29 ft 24 kts 65°
2026-04-21 11:08 -37.00496 174.80119 30 ft 25 kts 70°
2026-04-21 11:09 -37.00455 174.80251 29 ft 11 kts 75°
2026-04-21 11:09 -37.00447 174.80304 29 ft 6 kts 84°
2026-04-21 11:09 -37.00466 174.80354 30 ft 7 kts 139°
2026-04-21 11:09 -37.00512 174.80384 30 ft 7 kts 149°
2026-04-21 11:10 -37.00555 174.80433 30 ft 9 kts 131°
2026-04-21 11:10 -37.00588 174.80481 31 ft 3 kts 131°
2026-04-21 11:10 -37.00588 174.80482 31 ft 0 kts 131°
2026-04-21 11:12 -37.00589 174.80484 31 ft 2 kts 131°
2026-04-21 11:12 -37.00614 174.80516 32 ft 7 kts 137°
2026-04-21 11:12 -37.00655 174.80547 32 ft 6 kts 162°
2026-04-21 11:13 -37.00678 174.80518 33 ft 5 kts 241°
2026-04-21 11:13 -37.00684 174.80501 33 ft 0 kts 248°
2026-04-21 11:13 -37.00712 174.80407 35 ft 41 kts 251°
2026-04-21 11:13 -37.00883 174.79788 31 ft 107 kts 250°
2026-04-21 11:14 -37.01197 174.78695 28 ft 157 kts 251°
2026-04-21 11:14 -37.01514 174.77313 511 ft 161 kts 255°
2026-04-21 11:14 -37.01778 174.75971 1367 ft 158 kts 251°
2026-04-21 11:14 -37.02120 174.74650 1924 ft 164 kts 249°
2026-04-21 11:15 -37.02542 174.73242 2342 ft 181 kts 245°
2026-04-21 11:15 -37.03096 174.71760 2848 ft 196 kts 242°
2026-04-21 11:15 -37.03691 174.70132 3298 ft 215 kts 247°
2026-04-21 11:15 -37.04214 174.68278 3649 ft 240 kts 252°
2026-04-21 11:16 -37.04715 174.66178 4101 ft 263 kts 252°
2026-04-21 11:16 -37.05067 174.64701 4581 ft 267 kts 252°
2026-04-21 11:16 -37.05620 174.62474 5535 ft 269 kts 251°
2026-04-21 11:16 -37.06200 174.60236 6459 ft 271 kts 251°
2026-04-21 11:17 -37.06825 174.57999 7339 ft 273 kts 250°
2026-04-21 11:17 -37.07251 174.55683 8179 ft 277 kts 267°
2026-04-21 11:17 -37.06951 174.53294 9030 ft 282 kts 292°
2026-04-21 11:17 -37.05818 174.51286 9820 ft 289 kts 318°
2026-04-21 11:18 -37.04053 174.50064 10573 ft 295 kts 341°
2026-04-21 11:18 -37.02067 174.49347 11323 ft 299 kts 342°
2026-04-21 11:18 -37.00068 174.48569 12128 ft 301 kts 340°
2026-04-21 11:18 -36.98118 174.47654 12987 ft 300 kts 335°
2026-04-21 11:19 -36.96205 174.46583 13762 ft 303 kts 333°
2026-04-21 11:19 -36.94301 174.45444 14406 ft 306 kts 332°
2026-04-21 11:19 -36.92316 174.44443 15070 ft 310 kts 347°
2026-04-21 11:19 -36.90153 174.44408 15703 ft 316 kts 11°
2026-04-21 11:20 -36.88112 174.45457 16326 ft 322 kts 31°
2026-04-21 11:20 -36.86224 174.47080 16646 ft 339 kts 35°
2026-04-21 11:20 -36.84279 174.48881 16834 ft 357 kts 36°
2026-04-21 11:20 -36.82237 174.50768 17043 ft 373 kts 35°
2026-04-21 11:21 -36.80118 174.52683 17586 ft 378 kts 34°
2026-04-21 11:21 -36.77974 174.54591 18238 ft 381 kts 34°
2026-04-21 11:21 -36.75799 174.56508 18792 ft 383 kts 34°
2026-04-21 11:21 -36.73612 174.58426 19343 ft 386 kts 34°
2026-04-21 11:22 -36.71405 174.60358 19887 ft 390 kts 34°
2026-04-21 11:22 -36.69175 174.62309 20428 ft 393 kts 34°
2026-04-21 11:22 -36.66927 174.64274 20973 ft 396 kts 34°
2026-04-21 11:22 -36.64665 174.66251 21517 ft 398 kts 34°
2026-04-21 11:23 -36.62386 174.68242 22041 ft 402 kts 34°
2026-04-21 11:23 -36.60087 174.70248 22562 ft 405 kts 34°
2026-04-21 11:23 -36.57777 174.72263 23083 ft 408 kts 34°
2026-04-21 11:23 -36.55448 174.74292 23571 ft 410 kts 33°
2026-04-21 11:24 -36.53101 174.76336 24007 ft 413 kts 33°
2026-04-21 11:24 -36.50769 174.78366 24452 ft 415 kts 33°
2026-04-21 11:24 -36.48372 174.80450 24884 ft 417 kts 33°
2026-04-21 11:24 -36.45983 174.82525 25308 ft 419 kts 33°
2026-04-21 11:25 -36.43587 174.84606 25714 ft 422 kts 33°
2026-04-21 11:25 -36.41177 174.86704 26130 ft 424 kts 34°
2026-04-21 11:25 -36.38800 174.88899 26527 ft 427 kts 36°
2026-04-21 11:25 -36.36446 174.91148 26914 ft 429 kts 36°
2026-04-21 11:26 -36.34107 174.93389 27265 ft 432 kts 36°
2026-04-21 11:26 -36.31718 174.95664 27641 ft 434 kts 36°
2026-04-21 11:26 -36.29318 174.97936 27992 ft 436 kts 35°
2026-04-21 11:26 -36.26898 175.00217 28343 ft 438 kts 35°
2026-04-21 11:27 -36.24470 175.02498 28655 ft 440 kts 35°
2026-04-21 11:27 -36.21988 175.04827 28981 ft 442 kts 35°
2026-04-21 11:27 -36.19564 175.07100 29284 ft 444 kts 35°
2026-04-21 11:27 -36.17092 175.09415 29609 ft 446 kts 35°
2026-04-21 11:28 -36.14610 175.11738 29883 ft 449 kts 35°
2026-04-21 11:28 -36.12118 175.14068 30137 ft 451 kts 34°
2026-04-21 11:28 -36.09608 175.16415 30375 ft 453 kts 34°
2026-04-21 11:28 -36.07084 175.18772 30614 ft 456 kts 34°
2026-04-21 11:29 -36.04542 175.21142 30842 ft 458 kts 33°
2026-04-21 11:29 -36.01999 175.23514 31121 ft 459 kts 33°
2026-04-21 11:29 -35.99445 175.25895 31427 ft 459 kts 33°
2026-04-21 11:29 -35.96895 175.28272 31732 ft 460 kts 32°
2026-04-21 11:30 -35.94344 175.30646 32004 ft 460 kts 32°
2026-04-21 11:30 -35.91781 175.33030 32308 ft 460 kts 32°
2026-04-21 11:30 -35.89227 175.35403 32604 ft 460 kts 31°
2026-04-21 11:30 -35.86663 175.37784 32891 ft 461 kts 31°
2026-04-21 11:31 -35.84110 175.40152 33162 ft 461 kts 30°
2026-04-21 11:31 -35.81542 175.42532 33445 ft 461 kts 30°
2026-04-21 11:31 -35.78987 175.44898 33731 ft 460 kts 30°
2026-04-21 11:31 -35.76426 175.47267 33976 ft 460 kts 29°
2026-04-21 11:32 -35.73866 175.49633 34203 ft 459 kts 29°
2026-04-21 11:32 -35.71316 175.51987 34417 ft 459 kts 29°
2026-04-21 11:32 -35.68756 175.54347 34638 ft 459 kts 28°
2026-04-21 11:32 -35.66205 175.56697 34839 ft 458 kts 28°
2026-04-21 11:33 -35.63659 175.59042 35033 ft 458 kts 28°
2026-04-21 11:33 -35.61107 175.61389 35230 ft 458 kts 28°
2026-04-21 11:33 -35.58557 175.63733 35417 ft 458 kts 28°
2026-04-21 11:33 -35.56003 175.66078 35610 ft 457 kts 28°
2026-04-21 11:34 -35.53451 175.68420 35789 ft 457 kts 27°
2026-04-21 11:34 -35.50911 175.70749 35960 ft 457 kts 27°
2026-04-21 11:34 -35.48359 175.73087 36135 ft 457 kts 27°
2026-04-21 11:34 -35.45814 175.75416 36302 ft 456 kts 27°
2026-04-21 11:35 -35.43276 175.77738 36461 ft 456 kts 27°
2026-04-21 11:35 -35.40729 175.80065 36618 ft 456 kts 27°
2026-04-21 11:35 -35.38189 175.82384 36774 ft 456 kts 27°
2026-04-21 11:35 -35.35643 175.84707 36820 ft 456 kts 27°
2026-04-21 11:36 -35.30572 175.89328 36830 ft 454 kts 26°
2026-04-21 11:36 -35.25496 175.93946 36824 ft 454 kts 26°
2026-04-21 11:37 -35.20427 175.98549 36822 ft 454 kts 26°
2026-04-21 11:37 -35.15365 176.03140 36824 ft 453 kts 26°
2026-04-21 11:38 -35.10308 176.07719 36819 ft 453 kts 25°
2026-04-21 11:38 -35.05240 176.12301 36820 ft 452 kts 25°
2026-04-21 11:39 -35.00213 176.16839 36823 ft 452 kts 25°
2026-04-21 11:39 -34.95129 176.21421 36821 ft 452 kts 25°
2026-04-21 11:40 -34.90111 176.25936 36821 ft 451 kts 24°
2026-04-21 11:40 -34.85066 176.30470 36818 ft 451 kts 24°
2026-04-21 11:41 -34.80021 176.34995 36827 ft 450 kts 24°
2026-04-21 11:41 -34.74988 176.39504 36817 ft 449 kts 24°
2026-04-21 11:42 -34.69955 176.44005 36819 ft 449 kts 23°
2026-04-21 11:42 -34.64928 176.48494 36819 ft 448 kts 23°
2026-04-21 11:43 -34.59905 176.52972 36819 ft 448 kts 22°
2026-04-21 11:43 -34.54879 176.57446 36820 ft 447 kts 22°
2026-04-21 11:44 -34.49871 176.61897 36836 ft 447 kts 22°
2026-04-21 11:44 -34.47361 176.64124 36961 ft 447 kts 22°
2026-04-21 11:44 -34.44852 176.66350 37106 ft 447 kts 22°
2026-04-21 11:45 -34.42347 176.68570 37261 ft 446 kts 22°
2026-04-21 11:45 -34.39846 176.70786 37394 ft 446 kts 22°
2026-04-21 11:45 -34.37338 176.73006 37530 ft 446 kts 22°
2026-04-21 11:45 -34.34838 176.75216 37657 ft 445 kts 22°
2026-04-21 11:46 -34.32339 176.77425 37780 ft 445 kts 21°
2026-04-21 11:46 -34.29830 176.79640 37823 ft 445 kts 21°
2026-04-21 11:46 -34.24837 176.84046 37823 ft 443 kts 21°
2026-04-21 11:47 -34.19862 176.88429 37828 ft 443 kts 21°
2026-04-21 11:47 -34.14864 176.92773 37825 ft 437 kts 18°
2026-04-21 11:48 -34.09713 176.96464 37825 ft 430 kts 15°
2026-04-21 11:48 -34.04591 177.00095 37826 ft 430 kts 15°
2026-04-21 11:49 -33.99438 177.03754 37824 ft 429 kts 15°
2026-04-21 11:49 -33.94304 177.07392 37824 ft 429 kts 15°
2026-04-21 11:50 -33.89162 177.11029 37833 ft 428 kts 15°
2026-04-21 11:50 -33.84033 177.14650 37827 ft 428 kts 15°
2026-04-21 11:51 -33.78906 177.18264 37830 ft 427 kts 14°
2026-04-21 11:51 -33.73783 177.21870 37829 ft 426 kts 14°
2026-04-21 11:52 -33.68671 177.25464 37830 ft 426 kts 14°
2026-04-21 11:52 -33.63572 177.29049 37834 ft 422 kts 13°
2026-04-21 11:53 -33.58522 177.32591 37834 ft 421 kts 13°
2026-04-21 11:53 -33.53463 177.36125 37844 ft 421 kts 13°
2026-04-21 11:54 -33.48413 177.39655 37836 ft 420 kts 13°
2026-04-21 11:54 -33.43371 177.43175 37835 ft 419 kts 13°
2026-04-21 11:55 -33.38331 177.46690 37838 ft 419 kts 13°
2026-04-21 11:55 -33.33291 177.50199 37840 ft 418 kts 13°
2026-04-21 11:56 -33.28268 177.53692 37838 ft 417 kts 12°
2026-04-21 11:56 -33.23288 177.57151 37845 ft 416 kts 12°
2026-04-21 11:57 -33.18288 177.60618 37846 ft 415 kts 12°
2026-04-21 11:57 -33.13299 177.64074 37845 ft 414 kts 12°
2026-04-21 11:58 -33.08317 177.67519 37844 ft 413 kts 12°
2026-04-21 11:58 -33.03346 177.70952 37846 ft 413 kts 12°
2026-04-21 11:59 -32.98389 177.74372 37849 ft 412 kts 12°
2026-04-21 11:59 -32.93434 177.77785 37849 ft 411 kts 11°
2026-04-21 12:00 -32.88488 177.81188 37863 ft 410 kts 11°
2026-04-21 12:00 -32.83547 177.84583 37850 ft 409 kts 11°
2026-04-21 12:01 -32.78626 177.87961 37847 ft 408 kts 11°
2026-04-21 12:01 -32.73705 177.91332 37852 ft 408 kts 11°
2026-04-21 12:02 -32.66325 177.96379 38015 ft 408 kts 11°
2026-04-21 12:02 -32.63863 177.98063 38128 ft 408 kts 11°
2026-04-21 12:03 -32.62229 177.99179 38223 ft 407 kts 11°
2026-04-21 12:03 -32.59779 178.00853 38358 ft 407 kts 11°
2026-04-21 12:03 -32.56531 178.03069 38490 ft 406 kts 11°
2026-04-21 12:04 -32.51630 178.06406 38649 ft 407 kts 11°
2026-04-21 12:04 -32.46728 178.09740 38786 ft 407 kts 11°
2026-04-21 12:05 -32.42616 178.12533 38861 ft 407 kts 11°
2026-04-21 12:05 -32.37702 178.15871 38870 ft 406 kts 11°
2026-04-21 12:06 -32.32802 178.19194 38869 ft 406 kts 11°
2026-04-21 12:06 -32.27907 178.22508 38865 ft 406 kts 11°
2026-04-21 12:07 -32.23005 178.25822 38874 ft 406 kts 11°
2026-04-21 12:07 -32.18100 178.29135 38873 ft 406 kts 11°
2026-04-21 12:08 -32.13204 178.32439 38873 ft 405 kts 11°
2026-04-21 12:08 -32.08308 178.35738 38873 ft 405 kts 11°
2026-04-21 12:09 -32.03411 178.39033 38873 ft 405 kts 11°
2026-04-21 12:09 -31.98546 178.42303 38873 ft 405 kts 11°
2026-04-21 12:10 -31.93653 178.45588 38877 ft 405 kts 11°
2026-04-21 12:10 -31.88764 178.48866 38876 ft 405 kts 11°
2026-04-21 12:11 -31.83866 178.52146 38876 ft 405 kts 11°
2026-04-21 12:11 -31.78972 178.55418 38878 ft 405 kts 11°
2026-04-21 12:12 -31.74076 178.58689 38880 ft 405 kts 11°
2026-04-21 12:12 -31.69172 178.61961 38884 ft 405 kts 11°
2026-04-21 12:13 -31.64274 178.65225 38885 ft 405 kts 11°
2026-04-21 12:13 -31.59370 178.68489 38892 ft 405 kts 11°
2026-04-21 12:14 -31.54461 178.71752 38901 ft 406 kts 11°
2026-04-21 12:14 -31.49548 178.75014 38893 ft 406 kts 11°
2026-04-21 12:15 -31.44634 178.78273 38897 ft 406 kts 11°
2026-04-21 12:15 -31.39724 178.81525 38902 ft 406 kts 11°
2026-04-21 12:16 -31.34806 178.84778 38904 ft 406 kts 11°
2026-04-21 12:16 -31.29904 178.88020 38892 ft 404 kts 11°
2026-04-21 12:17 -31.25011 178.91248 38902 ft 404 kts 11°
2026-04-21 12:17 -31.20114 178.94473 38902 ft 404 kts 11°
2026-04-21 12:18 -31.15216 178.97698 38896 ft 404 kts 11°
2026-04-21 12:18 -31.10319 179.00918 38908 ft 404 kts 11°
2026-04-21 12:19 -31.05422 179.04134 38912 ft 405 kts 11°
2026-04-21 12:19 -31.00513 179.07354 38910 ft 405 kts 11°
2026-04-21 12:20 -30.95597 179.10576 38910 ft 405 kts 11°
2026-04-21 12:20 -30.90712 179.13773 38914 ft 406 kts 11°
2026-04-21 12:21 -30.85753 179.17014 38914 ft 406 kts 11°
2026-04-21 12:21 -30.80865 179.20206 38917 ft 406 kts 11°
2026-04-21 12:22 -30.75942 179.23416 38911 ft 406 kts 11°
2026-04-21 12:22 -30.70999 179.26636 38918 ft 407 kts 11°
2026-04-21 12:23 -30.66063 179.29847 38917 ft 407 kts 11°
2026-04-21 12:23 -30.61130 179.33052 38915 ft 407 kts 11°
2026-04-21 12:24 -30.56183 179.36263 38916 ft 407 kts 11°
2026-04-21 12:24 -30.51235 179.39471 38915 ft 407 kts 12°
2026-04-21 12:25 -30.46285 179.42676 38915 ft 408 kts 12°
2026-04-21 12:25 -30.41325 179.45884 38917 ft 408 kts 12°
2026-04-21 12:26 -30.36364 179.49089 38914 ft 409 kts 12°
2026-04-21 12:26 -30.31397 179.52293 38916 ft 409 kts 12°
2026-04-21 12:27 -30.26420 179.55501 38914 ft 410 kts 12°
2026-04-21 12:27 -30.21429 179.58713 38918 ft 410 kts 12°
2026-04-21 12:28 -30.16442 179.61920 38937 ft 411 kts 12°
2026-04-21 12:28 -30.11424 179.65144 38918 ft 412 kts 12°
2026-04-21 12:29 -30.06424 179.68354 38926 ft 413 kts 12°
2026-04-21 12:29 -30.01419 179.71563 38930 ft 414 kts 12°
2026-04-21 12:30 -29.96349 179.74803 38933 ft 414 kts 12°
2026-04-21 12:30 -29.91338 179.77997 38929 ft 415 kts 12°
2026-04-21 12:31 -29.86291 179.81218 38932 ft 416 kts 12°
2026-04-21 12:31 -29.81223 179.84451 38933 ft 417 kts 12°
2026-04-21 12:32 -29.76144 179.87688 38935 ft 417 kts 12°
2026-04-21 12:32 -29.71059 179.90925 38937 ft 418 kts 12°
2026-04-21 12:33 -29.65954 179.94169 38933 ft 419 kts 12°
2026-04-21 12:33 -29.60840 179.97415 38934 ft 420 kts 12°
2026-04-21 12:34 -29.55724 -179.99342 38941 ft 420 kts 13°
2026-04-21 12:34 -29.50599 -179.96097 38937 ft 421 kts 13°
2026-04-21 12:35 -29.45461 -179.92847 38932 ft 422 kts 13°
2026-04-21 12:35 -29.40309 -179.89593 38937 ft 423 kts 13°
2026-04-21 12:36 -29.35151 -179.86338 38935 ft 423 kts 13°
2026-04-21 12:36 -29.29984 -179.83082 38943 ft 424 kts 13°
2026-04-21 12:37 -29.24806 -179.79823 38941 ft 425 kts 13°
2026-04-21 12:37 -29.19626 -179.76566 38948 ft 425 kts 13°
2026-04-21 12:38 -29.14432 -179.73304 38950 ft 426 kts 13°
2026-04-21 12:38 -29.09234 -179.70044 38956 ft 426 kts 13°
2026-04-21 12:39 -29.04034 -179.66785 38951 ft 426 kts 13°
2026-04-21 12:39 -28.98846 -179.63536 38948 ft 425 kts 13°
2026-04-21 12:40 -28.93647 -179.60289 38951 ft 426 kts 13°
2026-04-21 12:40 -28.88448 -179.57042 38946 ft 426 kts 14°
2026-04-21 12:41 -28.83251 -179.53801 38950 ft 427 kts 14°
2026-04-21 12:41 -28.78031 -179.50549 38955 ft 427 kts 14°
2026-04-21 12:42 -28.72814 -179.47303 38950 ft 428 kts 14°
2026-04-21 12:42 -28.67613 -179.44071 38962 ft 428 kts 14°
2026-04-21 12:43 -28.62384 -179.40825 38955 ft 429 kts 14°
2026-04-21 12:43 -28.57144 -179.37576 38954 ft 429 kts 14°
2026-04-21 12:44 -28.51889 -179.34321 38957 ft 430 kts 14°
2026-04-21 12:44 -28.46624 -179.31063 38955 ft 431 kts 14°
2026-04-21 12:45 -28.41363 -179.27812 38959 ft 431 kts 14°
2026-04-21 12:45 -28.36081 -179.24552 38961 ft 432 kts 14°
2026-04-21 12:46 -28.30798 -179.21295 38961 ft 433 kts 14°
2026-04-21 12:46 -28.25498 -179.18031 38963 ft 434 kts 14°
2026-04-21 12:47 -28.20190 -179.14766 38962 ft 434 kts 14°
2026-04-21 12:47 -28.14879 -179.11503 38968 ft 435 kts 14°
2026-04-21 12:48 -28.09547 -179.08230 38964 ft 436 kts 15°
2026-04-21 12:48 -28.04209 -179.04957 38966 ft 437 kts 15°
2026-04-21 12:49 -27.98866 -179.01686 38967 ft 437 kts 15°
2026-04-21 12:49 -27.94403 -178.98956 38971 ft 438 kts 15°
2026-04-21 12:50 -27.89049 -178.95684 38974 ft 439 kts 15°
2026-04-21 12:50 -27.83674 -178.92404 38971 ft 439 kts 15°
2026-04-21 12:51 -27.78290 -178.89121 38975 ft 439 kts 15°
2026-04-21 12:51 -27.72909 -178.85843 38978 ft 440 kts 15°
2026-04-21 12:52 -27.67523 -178.82567 38979 ft 440 kts 15°
2026-04-21 12:52 -27.62130 -178.79290 38977 ft 440 kts 15°
2026-04-21 12:53 -27.56747 -178.76022 38973 ft 440 kts 15°
2026-04-21 12:53 -27.51349 -178.72750 38972 ft 440 kts 15°
2026-04-21 12:54 -27.45953 -178.69482 38972 ft 440 kts 15°
2026-04-21 12:54 -27.40555 -178.66217 38970 ft 441 kts 16°
2026-04-21 12:55 -27.35154 -178.62953 38972 ft 441 kts 16°
2026-04-21 12:55 -27.29743 -178.59687 38974 ft 441 kts 16°
2026-04-21 12:56 -27.24330 -178.56424 38978 ft 441 kts 16°
2026-04-21 12:56 -27.18926 -178.53170 38979 ft 442 kts 16°
2026-04-21 12:57 -27.13508 -178.49911 38981 ft 442 kts 16°
2026-04-21 12:57 -27.08082 -178.46650 38983 ft 442 kts 16°
2026-04-21 12:58 -27.02667 -178.43400 38987 ft 442 kts 16°
2026-04-21 12:58 -26.97279 -178.40170 38983 ft 442 kts 16°
2026-04-21 12:59 -26.91877 -178.36933 38981 ft 440 kts 16°
2026-04-21 12:59 -26.86477 -178.33704 38981 ft 440 kts 17°
2026-04-21 13:00 -26.81087 -178.30483 38981 ft 439 kts 17°
2026-04-21 13:00 -26.75704 -178.27269 38991 ft 439 kts 17°
2026-04-21 13:01 -26.70318 -178.24058 38986 ft 439 kts 17°
2026-04-21 13:01 -26.64931 -178.20849 38982 ft 439 kts 17°
2026-04-21 13:02 -26.59539 -178.17642 38981 ft 439 kts 17°
2026-04-21 13:02 -26.51447 -178.12833 38983 ft 439 kts 17°
2026-04-21 13:03 -26.46057 -178.09634 38984 ft 439 kts 17°
2026-04-21 13:03 -26.40670 -178.06441 38984 ft 439 kts 17°
2026-04-21 13:04 -26.35271 -178.03244 38981 ft 439 kts 17°
2026-04-21 13:04 -26.29880 -178.00056 38985 ft 439 kts 17°
2026-04-21 13:05 -26.24479 -177.96864 38981 ft 439 kts 17°
2026-04-21 13:05 -26.19073 -177.93673 38982 ft 440 kts 17°
2026-04-21 13:06 -26.13660 -177.90481 38982 ft 440 kts 17°
2026-04-21 13:06 -26.08249 -177.87294 38987 ft 440 kts 17°
2026-04-21 13:07 -26.02841 -177.84111 38986 ft 441 kts 17°
2026-04-21 13:07 -25.97408 -177.80918 38984 ft 441 kts 18°
2026-04-21 13:08 -25.91984 -177.77733 38985 ft 442 kts 18°
2026-04-21 13:08 -25.86545 -177.74543 38976 ft 442 kts 18°
2026-04-21 13:09 -25.81107 -177.71357 38989 ft 443 kts 18°
2026-04-21 13:09 -25.75690 -177.68186 38990 ft 443 kts 18°
2026-04-21 13:10 -25.70240 -177.65000 38991 ft 443 kts 18°
2026-04-21 13:10 -25.64782 -177.61811 38990 ft 443 kts 18°
2026-04-21 13:11 -25.59287 -177.58605 38997 ft 443 kts 18°
2026-04-21 13:11 -25.53867 -177.55445 38988 ft 442 kts 18°
2026-04-21 13:12 -25.48434 -177.52281 38984 ft 442 kts 18°
2026-04-21 13:12 -25.42985 -177.49113 38983 ft 442 kts 18°
2026-04-21 13:13 -25.37546 -177.45952 38988 ft 442 kts 18°
2026-04-21 13:13 -25.32102 -177.42792 38984 ft 442 kts 18°
2026-04-21 13:14 -25.26658 -177.39635 38985 ft 442 kts 18°
2026-04-21 13:14 -25.21214 -177.36481 38983 ft 442 kts 18°
2026-04-21 13:15 -25.15766 -177.33327 38984 ft 442 kts 19°
2026-04-21 13:15 -25.10316 -177.30174 38983 ft 442 kts 19°
2026-04-21 13:16 -25.04868 -177.27026 38984 ft 443 kts 19°
2026-04-21 13:16 -24.99409 -177.23875 38981 ft 443 kts 19°
2026-04-21 13:17 -24.93944 -177.20735 38978 ft 443 kts 19°
2026-04-21 13:17 -24.88472 -177.17595 38978 ft 444 kts 19°
2026-04-21 13:18 -24.82989 -177.14447 38981 ft 444 kts 19°
2026-04-21 13:18 -24.77511 -177.11304 38991 ft 445 kts 19°
2026-04-21 13:19 -24.72050 -177.08175 38989 ft 445 kts 19°
2026-04-21 13:19 -24.66559 -177.05032 38992 ft 446 kts 19°
2026-04-21 13:20 -24.61050 -177.01885 38994 ft 446 kts 19°
2026-04-21 13:20 -24.55539 -176.98747 38993 ft 446 kts 19°
2026-04-21 13:21 -24.50035 -176.95595 38993 ft 447 kts 19°
2026-04-21 13:21 -24.44527 -176.92451 38985 ft 445 kts 19°
2026-04-21 13:22 -24.39037 -176.89323 38984 ft 445 kts 19°
2026-04-21 13:22 -24.33537 -176.86195 38981 ft 445 kts 20°
2026-04-21 13:23 -24.28039 -176.83070 38984 ft 445 kts 20°
2026-04-21 13:23 -24.22546 -176.79950 38983 ft 445 kts 20°
2026-04-21 13:24 -24.17054 -176.76835 38981 ft 445 kts 20°
2026-04-21 13:24 -24.11560 -176.73721 38980 ft 444 kts 20°
2026-04-21 13:25 -24.06063 -176.70609 38978 ft 444 kts 20°
2026-04-21 13:25 -24.00575 -176.67504 38980 ft 444 kts 20°
2026-04-21 13:26 -23.95080 -176.64399 38980 ft 444 kts 20°
2026-04-21 13:26 -23.89592 -176.61300 38982 ft 444 kts 20°
2026-04-21 13:27 -23.84099 -176.58202 38975 ft 444 kts 20°
2026-04-21 13:27 -23.78597 -176.55101 38979 ft 444 kts 21°
2026-04-21 13:28 -23.73109 -176.52012 38981 ft 444 kts 21°
2026-04-21 13:28 -23.67640 -176.48936 38975 ft 444 kts 21°
2026-04-21 13:29 -23.62112 -176.45830 38976 ft 445 kts 21°
2026-04-21 13:29 -23.56613 -176.42743 38975 ft 445 kts 21°
2026-04-21 13:30 -23.51146 -176.39677 38974 ft 445 kts 21°
2026-04-21 13:30 -23.45646 -176.36595 38969 ft 445 kts 21°
2026-04-21 13:31 -23.40146 -176.33517 38974 ft 445 kts 21°
2026-04-21 13:31 -23.34634 -176.30434 38975 ft 445 kts 21°
2026-04-21 13:32 -23.29133 -176.27361 38975 ft 445 kts 21°
2026-04-21 13:32 -23.23624 -176.24286 38979 ft 445 kts 21°
2026-04-21 13:33 -23.18116 -176.21214 38976 ft 445 kts 21°
2026-04-21 13:33 -23.12611 -176.18147 38980 ft 445 kts 21°
2026-04-21 13:34 -23.07091 -176.15075 38980 ft 445 kts 22°
2026-04-21 13:34 -23.01585 -176.12013 38979 ft 445 kts 22°
2026-04-21 13:35 -22.96069 -176.08948 38977 ft 445 kts 22°
2026-04-21 13:35 -22.90554 -176.05887 38736 ft 445 kts 22°
2026-04-21 13:36 -22.87805 -176.04361 38480 ft 444 kts 22°
2026-04-21 13:36 -22.85049 -176.02834 37912 ft 447 kts 22°
2026-04-21 13:36 -22.82269 -176.01294 37139 ft 451 kts 22°
2026-04-21 13:36 -22.79474 -175.99746 36430 ft 451 kts 22°
2026-04-21 13:37 -22.77620 -175.98719 35908 ft 453 kts 22°
2026-04-21 13:37 -22.73894 -175.96656 34920 ft 455 kts 21°
2026-04-21 13:37 -22.71992 -175.95604 34461 ft 455 kts 21°
2026-04-21 13:37 -22.69154 -175.94035 33664 ft 458 kts 21°
2026-04-21 13:38 -22.66320 -175.92469 32895 ft 458 kts 21°
2026-04-21 13:38 -22.63468 -175.90893 32074 ft 460 kts 21°
2026-04-21 13:38 -22.60619 -175.89320 31250 ft 462 kts 21°
2026-04-21 13:38 -22.57762 -175.87742 30687 ft 457 kts 21°
2026-04-21 13:39 -22.54951 -175.86188 30156 ft 452 kts 21°
2026-04-21 13:39 -22.52161 -175.84649 29559 ft 448 kts 21°
2026-04-21 13:39 -22.49407 -175.83129 28991 ft 442 kts 21°
2026-04-21 13:39 -22.46675 -175.81624 28410 ft 437 kts 21°
2026-04-21 13:40 -22.43984 -175.80141 27863 ft 432 kts 21°
2026-04-21 13:40 -22.41314 -175.78672 27305 ft 428 kts 22°
2026-04-21 13:40 -22.37825 -175.76752 26552 ft 424 kts 21°
2026-04-21 13:40 -22.36033 -175.75847 26193 ft 418 kts 18°
2026-04-21 13:41 -22.33315 -175.74790 25604 ft 412 kts 11°
2026-04-21 13:41 -22.30578 -175.73924 25040 ft 410 kts 12°
2026-04-21 13:41 -22.27860 -175.73048 24498 ft 407 kts 12°
2026-04-21 13:41 -22.25154 -175.72170 23955 ft 404 kts 12°
2026-04-21 13:42 -22.22503 -175.71309 23407 ft 402 kts 12°
2026-04-21 13:42 -22.19794 -175.70430 22841 ft 398 kts 12°
2026-04-21 13:42 -22.17167 -175.69577 22304 ft 393 kts 13°
2026-04-21 13:42 -22.14589 -175.68742 21779 ft 390 kts 13°
2026-04-21 13:43 -22.11972 -175.67896 21237 ft 386 kts 13°
2026-04-21 13:43 -22.09439 -175.67077 20710 ft 383 kts 13°
2026-04-21 13:43 -22.06899 -175.66257 20179 ft 381 kts 13°
2026-04-21 13:43 -22.04364 -175.65439 19626 ft 379 kts 13°
2026-04-21 13:44 -22.01847 -175.64627 19079 ft 378 kts 13°
2026-04-21 13:44 -21.99338 -175.63817 18549 ft 376 kts 14°
2026-04-21 13:44 -21.96839 -175.63011 17996 ft 375 kts 14°
2026-04-21 13:44 -21.94352 -175.62209 17503 ft 371 kts 14°
2026-04-21 13:45 -21.91892 -175.61415 16975 ft 367 kts 14°
2026-04-21 13:45 -21.89451 -175.60628 16456 ft 365 kts 14°
2026-04-21 13:45 -21.87032 -175.59848 15943 ft 362 kts 14°
2026-04-21 13:45 -21.84627 -175.59073 15429 ft 360 kts 15°
2026-04-21 13:46 -21.82232 -175.58302 14883 ft 359 kts 15°
2026-04-21 13:46 -21.79845 -175.57533 14408 ft 356 kts 15°
2026-04-21 13:46 -21.77476 -175.56771 13870 ft 355 kts 15°
2026-04-21 13:46 -21.75108 -175.56008 13345 ft 353 kts 15°
2026-04-21 13:47 -21.72767 -175.55254 12807 ft 351 kts 15°
2026-04-21 13:47 -21.70441 -175.54506 12355 ft 347 kts 15°
2026-04-21 13:47 -21.68137 -175.53764 11867 ft 344 kts 15°
2026-04-21 13:47 -21.65851 -175.53029 11381 ft 342 kts 15°
2026-04-21 13:48 -21.63585 -175.52301 10900 ft 340 kts 15°
2026-04-21 13:48 -21.61324 -175.51575 10380 ft 339 kts 15°
2026-04-21 13:48 -21.59098 -175.50859 10215 ft 327 kts 15°
2026-04-21 13:48 -21.56968 -175.50174 10096 ft 313 kts 15°
2026-04-21 13:49 -21.54922 -175.49515 9981 ft 301 kts 15°
2026-04-21 13:49 -21.52941 -175.48879 9675 ft 295 kts 15°
2026-04-21 13:49 -21.50988 -175.48252 9383 ft 290 kts 15°
2026-04-21 13:49 -21.49063 -175.47635 9021 ft 287 kts 15°
2026-04-21 13:50 -21.47161 -175.47026 8649 ft 284 kts 15°
2026-04-21 13:50 -21.45271 -175.46420 8273 ft 282 kts 15°
2026-04-21 13:50 -21.43401 -175.45821 7914 ft 280 kts 15°
2026-04-21 13:50 -21.41539 -175.45225 7538 ft 279 kts 15°
2026-04-21 13:51 -21.39682 -175.44630 7180 ft 277 kts 15°
2026-04-21 13:51 -21.37839 -175.44040 6807 ft 276 kts 15°
2026-04-21 13:51 -21.36006 -175.43452 6446 ft 274 kts 15°
2026-04-21 13:51 -21.34180 -175.42868 6069 ft 273 kts 15°
2026-04-21 13:52 -21.32367 -175.42287 5706 ft 271 kts 15°
2026-04-21 13:52 -21.30568 -175.41710 5351 ft 270 kts 15°
2026-04-21 13:52 -21.28763 -175.41132 4984 ft 272 kts 15°
2026-04-21 13:52 -21.26970 -175.40560 4704 ft 270 kts 15°
2026-04-21 13:53 -21.25211 -175.39996 4576 ft 257 kts 15°
2026-04-21 13:53 -21.23551 -175.39463 4437 ft 241 kts 15°
2026-04-21 13:53 -21.21997 -175.38964 4283 ft 227 kts 15°
2026-04-21 13:53 -21.20501 -175.38456 3922 ft 224 kts 22°
2026-04-21 13:54 -21.19212 -175.37520 3505 ft 226 kts 45°
2026-04-21 13:54 -21.18278 -175.36236 3344 ft 211 kts 51°
2026-04-21 13:54 -21.17409 -175.35025 3132 ft 201 kts 50°
2026-04-21 13:54 -21.16585 -175.33899 3095 ft 185 kts 49°
2026-04-21 13:55 -21.15810 -175.32851 3017 ft 174 kts 49°
2026-04-21 13:55 -21.15140 -175.31828 2933 ft 163 kts 65°
2026-04-21 13:55 -21.15033 -175.30659 2758 ft 160 kts 101°
2026-04-21 13:55 -21.15531 -175.29598 2539 ft 157 kts 123°
2026-04-21 13:56 -21.16114 -175.28651 2488 ft 147 kts 121°
2026-04-21 13:56 -21.16662 -175.27726 2491 ft 148 kts 121°
2026-04-21 13:56 -21.17205 -175.26797 2398 ft 148 kts 120°
2026-04-21 13:56 -21.17749 -175.25863 2208 ft 145 kts 120°
2026-04-21 13:57 -21.18284 -175.24948 2043 ft 146 kts 120°
2026-04-21 13:57 -21.18817 -175.24031 1859 ft 145 kts 120°
2026-04-21 13:57 -21.19349 -175.23117 1676 ft 143 kts 120°
2026-04-21 13:57 -21.19872 -175.22219 1450 ft 141 kts 121°
2026-04-21 13:58 -21.20399 -175.21314 1251 ft 143 kts 121°
2026-04-21 13:58 -21.20918 -175.20426 1035 ft 141 kts 121°
2026-04-21 13:58 -21.21432 -175.19547 834 ft 137 kts 121°
2026-04-21 13:58 -21.21935 -175.18693 646 ft 136 kts 121°
2026-04-21 13:59 -21.22432 -175.17836 429 ft 134 kts 121°
2026-04-21 13:59 -21.22924 -175.16989 208 ft 133 kts 120°
2026-04-21 13:59 -21.23408 -175.16159 110 ft 133 kts 121°
2026-04-21 13:59 -21.23831 -175.15421 110 ft 92 kts 121°
2026-04-21 14:00 -21.24088 -175.14985 110 ft 37 kts 122°
2026-04-21 14:00 -21.24207 -175.14780 114 ft 31 kts 122°
2026-04-21 14:00 -21.24313 -175.14596 114 ft 27 kts 122°
2026-04-21 14:00 -21.24392 -175.14457 118 ft 16 kts 121°
2026-04-21 14:01 -21.24431 -175.14377 119 ft 9 kts 101°
2026-04-21 14:01 -21.24405 -175.14321 116 ft 9 kts 37°
2026-04-21 14:01 -21.24351 -175.14283 117 ft 10 kts 32°
2026-04-21 14:01 -21.24326 -175.14267 117 ft 3 kts 32°
2026-04-21 14:02 -21.24325 -175.14266 117 ft 0 kts 32°
2026-04-21 14:03 -21.24324 -175.14266 118 ft 1 kts 32°
2026-04-21 14:03 -21.24304 -175.14253 115 ft 5 kts 32°
2026-04-21 14:03 -21.24271 -175.14226 117 ft 6 kts 56°
2026-04-21 14:04 -21.24269 -175.14182 116 ft 5 kts 101°
2026-04-21 14:04 -21.24269 -175.14181 116 ft 0 kts 101°
2026-04-21 14:05 -21.24270 -175.14179 116 ft 2 kts 99°
2026-04-21 14:05 -21.24270 -175.14173 116 ft 1 kts 97°
2026-04-21 14:05 -21.24271 -175.14170 117 ft 0 kts 95°
2026-04-21 14:05 -21.24272 -175.14165 117 ft 2 kts 105°
2026-04-21 14:06 -21.24272 -175.14164 118 ft 0 kts 106°
2026-04-21 14:06 -21.24277 -175.14150 119 ft 4 kts 107°
2026-04-21 14:07 -21.24278 -175.14144 119 ft 1 kts 100°
2026-04-21 14:07 -21.24274 -175.14128 120 ft 3 kts 59°
2026-04-21 14:07 -21.24257 -175.14120 116 ft 0 kts 350°
2026-04-21 14:08 -21.24250 -175.14123 115 ft 4 kts 332°
2026-04-21 14:08 -21.24241 -175.14140 117 ft 0 kts 281°